Météo par heure à Abadia

Ce jour, 14 Avril, Mercredi

Heure Température Précipitation Vent Pression Humidité
00:00 +12°C° 0 mm 2 m/s 723 mmHg 92%
01:00 +12°C° 0 mm 2 m/s 722 mmHg 92%
02:00 +10°C° 0 mm 2 m/s 722 mmHg 92%
03:00 +10°C° 0 mm 2 m/s 722 mmHg 92%
04:00 +11°C° 0 mm 1 m/s 722 mmHg 92%
05:00 +10°C° 0 mm 1 m/s 722 mmHg 92%
06:00 +10°C° 0 mm 1 m/s 721 mmHg 92%
07:00 +12°C° 0 mm 1 m/s 721 mmHg 85%
08:00 +14°C° 0 mm 1 m/s 721 mmHg 77%
09:00 +18°C° 0 mm 1 m/s 721 mmHg 70%
10:00 +19°C° 0.1 mm 1 m/s 721 mmHg 65%
11:00 +19°C° 0.1 mm 2 m/s 721 mmHg 61%
12:00 +20°C° 0 mm 2 m/s 721 mmHg 58%
13:00 +21°C° 0.5 mm 1 m/s 720 mmHg 59%
14:00 +21°C° 0.5 mm 1 m/s 720 mmHg 61%
15:00 +21°C° 0.5 mm 1 m/s 719 mmHg 62%
16:00 +20°C° 0.7 mm 1 m/s 719 mmHg 67%
17:00 +20°C° 0.7 mm 1 m/s 719 mmHg 72%
18:00 +19°C° 0.7 mm 1 m/s 718 mmHg 77%
19:00 +18°C° 0.3 mm 1 m/s 719 mmHg 80%
20:00 +15°C° 0.3 mm 1 m/s 719 mmHg 83%
21:00 +14°C° 0.3 mm 1 m/s 719 mmHg 85%
22:00 +14°C° 0 mm 1 m/s 719 mmHg 86%
23:00 +14°C° 0 mm 1 m/s 719 mmHg 86%

Demain, 15 Avril, Jeudi

Heure Température Précipitation Vent Pression Humidité
00:00 +13°C° 0 mm 1 m/s 719 mmHg 86%
01:00 +13°C° 0 mm 1 m/s 719 mmHg 87%
02:00 +13°C° 0 mm 1 m/s 719 mmHg 87%
03:00 +12°C° 0 mm 1 m/s 719 mmHg 88%
04:00 +12°C° 0 mm 1 m/s 719 mmHg 88%
05:00 +12°C° 0 mm 1 m/s 719 mmHg 88%
06:00 +12°C° 0 mm 1 m/s 719 mmHg 88%
07:00 +13°C° 0 mm 1 m/s 719 mmHg 85%
08:00 +14°C° 0 mm 1 m/s 720 mmHg 81%
09:00 +14°C° 0 mm 1 m/s 720 mmHg 78%
10:00 +16°C° 0.1 mm 1 m/s 720 mmHg 73%
11:00 +17°C° 0.1 mm 2 m/s 720 mmHg 69%
12:00 +18°C° 0.1 mm 2 m/s 720 mmHg 64%
13:00 +19°C° 0.6 mm 1 m/s 719 mmHg 65%
14:00 +19°C° 0.6 mm 1 m/s 719 mmHg 65%
15:00 +19°C° 0.6 mm 1 m/s 719 mmHg 65%
16:00 +19°C° 0.6 mm 1 m/s 719 mmHg 68%
17:00 +18°C° 0.6 mm 1 m/s 719 mmHg 72%
18:00 +18°C° 0.6 mm 1 m/s 719 mmHg 75%
19:00 +15°C° 0.1 mm 1 m/s 719 mmHg 77%
20:00 +14°C° 0.1 mm 2 m/s 720 mmHg 79%
21:00 +12°C° 0.1 mm 2 m/s 720 mmHg 81%
22:00 +12°C° 0 mm 2 m/s 720 mmHg 81%
23:00 +10°C° 0 mm 2 m/s 720 mmHg 81%

Après-demain, 16 Avril, Vendredi

Heure Température Précipitation Vent Pression Humidité
00:00 +9°C° 0 mm 2 m/s 720 mmHg 81%
01:00 +9°C° 0 mm 2 m/s 720 mmHg 81%
02:00 +8°C° 0 mm 2 m/s 720 mmHg 82%
03:00 +8°C° 0 mm 2 m/s 721 mmHg 82%
04:00 +7°C° 0 mm 2 m/s 721 mmHg 81%
05:00 +7°C° 0 mm 2 m/s 721 mmHg 81%
06:00 +6°C° 0 mm 2 m/s 721 mmHg 80%
07:00 +9°C° 0 mm 2 m/s 721 mmHg 71%
08:00 +12°C° 0 mm 2 m/s 721 mmHg 61%
09:00 +14°C° 0 mm 2 m/s 721 mmHg 52%
10:00 +15°C° 0 mm 2 m/s 721 mmHg 48%
11:00 +17°C° 0 mm 3 m/s 721 mmHg 43%
12:00 +18°C° 0 mm 4 m/s 721 mmHg 39%
13:00 +18°C° 0 mm 4 m/s 721 mmHg 38%
14:00 +18°C° 0 mm 4 m/s 721 mmHg 37%
15:00 +19°C° 0 mm 5 m/s 720 mmHg 36%
16:00 +16°C° 0 mm 5 m/s 721 mmHg 39%
17:00 +15°C° 0 mm 5 m/s 721 mmHg 42%
18:00 +14°C° 0 mm 5 m/s 721 mmHg 45%
19:00 +12°C° 0 mm 4 m/s 721 mmHg 48%
20:00 +10°C° 0 mm 4 m/s 722 mmHg 51%
21:00 +8°C° 0 mm 3 m/s 722 mmHg 53%
22:00 +7°C° 0 mm 3 m/s 723 mmHg 54%
23:00 +7°C° 0 mm 2 m/s 723 mmHg 55%

17 Avril, Samedi

Heure Température Précipitation Vent Pression Humidité
00:00 +6°C° 0 mm 2 m/s 723 mmHg 55%
01:00 +6°C° 0 mm 2 m/s 723 mmHg 57%
02:00 +5°C° 0 mm 2 m/s 723 mmHg 58%
03:00 +4°C° 0 mm 2 m/s 723 mmHg 59%
04:00 +4°C° 0 mm 2 m/s 723 mmHg 58%
05:00 +3°C° 0 mm 2 m/s 724 mmHg 57%
06:00 +3°C° 0 mm 2 m/s 724 mmHg 56%
07:00 +4°C° 0 mm 3 m/s 724 mmHg 50%
08:00 +8°C° 0 mm 3 m/s 724 mmHg 43%
09:00 +10°C° 0 mm 3 m/s 724 mmHg 36%
10:00 +12°C° 0 mm 4 m/s 724 mmHg 36%
11:00 +13°C° 0 mm 4 m/s 724 mmHg 36%
12:00 +15°C° 0 mm 4 m/s 724 mmHg 35%
13:00 +15°C° 0 mm 4 m/s 723 mmHg 35%
14:00 +17°C° 0 mm 4 m/s 723 mmHg 35%
15:00 +17°C° 0 mm 4 m/s 723 mmHg 35%
16:00 +16°C° 0 mm 3 m/s 723 mmHg 39%
17:00 +16°C° 0 mm 3 m/s 723 mmHg 43%
18:00 +14°C° 0 mm 3 m/s 723 mmHg 46%
19:00 +12°C° 0 mm 3 m/s 724 mmHg 50%
20:00 +10°C° 0 mm 3 m/s 724 mmHg 53%
21:00 +8°C° 0 mm 3 m/s 725 mmHg 56%
22:00 +7°C° 0 mm 3 m/s 725 mmHg 54%
23:00 +7°C° 0 mm 2 m/s 725 mmHg 52%

18 Avril, Dimanche

Heure Température Précipitation Vent Pression Humidité
00:00 +7°C° 0 mm 2 m/s 725 mmHg 49%
01:00 +7°C° 0 mm 2 m/s 725 mmHg 50%
02:00 +7°C° 0 mm 2 m/s 725 mmHg 50%
03:00 +6°C° 0 mm 2 m/s 725 mmHg 51%
04:00 +6°C° 0 mm 2 m/s 725 mmHg 52%
05:00 +7°C° 0 mm 1 m/s 725 mmHg 53%
06:00 +7°C° 0 mm 1 m/s 725 mmHg 54%
07:00 +10°C° 0 mm 1 m/s 725 mmHg 50%
08:00 +12°C° 0 mm 1 m/s 725 mmHg 46%
09:00 +15°C° 0 mm 1 m/s 725 mmHg 42%
10:00 +16°C° 0 mm 1 m/s 725 mmHg 40%
11:00 +18°C° 0 mm 1 m/s 725 mmHg 38%
12:00 +20°C° 0 mm 1 m/s 725 mmHg 36%
13:00 +19°C° 0 mm 2 m/s 724 mmHg 36%
14:00 +19°C° 0 mm 2 m/s 724 mmHg 37%
15:00 +20°C° 0 mm 3 m/s 724 mmHg 37%
16:00 +19°C° 0 mm 2 m/s 724 mmHg 44%
17:00 +18°C° 0 mm 2 m/s 723 mmHg 51%
18:00 +18°C° 0 mm 1 m/s 723 mmHg 58%
19:00 +16°C° 0 mm 1 m/s 724 mmHg 59%
20:00 +14°C° 0 mm 1 m/s 724 mmHg 60%
21:00 +13°C° 0 mm 1 m/s 724 mmHg 61%
22:00 +13°C° 0 mm 1 m/s 724 mmHg 61%
23:00 +13°C° 0 mm 1 m/s 723 mmHg 62%

19 Avril, Lundi

Heure Température Précipitation Vent Pression Humidité
00:00 +12°C° 0 mm 1 m/s 723 mmHg 62%
01:00 +12°C° 0.1 mm 1 m/s 723 mmHg 67%
02:00 +12°C° 0.1 mm 1 m/s 723 mmHg 71%
03:00 +12°C° 0.1 mm 1 m/s 722 mmHg 75%
04:00 +11°C° 0 mm 1 m/s 722 mmHg 77%
05:00 +11°C° 0 mm 1 m/s 722 mmHg 78%
06:00 +11°C° 0 mm 1 m/s 722 mmHg 80%
07:00 +12°C° 0 mm 1 m/s 722 mmHg 75%
08:00 +14°C° 0 mm 2 m/s 722 mmHg 71%
09:00 +15°C° 0 mm 2 m/s 722 mmHg 66%
10:00 +16°C° 0 mm 2 m/s 722 mmHg 61%
11:00 +17°C° 0 mm 3 m/s 722 mmHg 56%
12:00 +19°C° 0 mm 3 m/s 722 mmHg 51%
13:00 +19°C° 0 mm 3 m/s 721 mmHg 51%
14:00 +19°C° 0 mm 3 m/s 721 mmHg 51%
15:00 +19°C° 0 mm 3 m/s 720 mmHg 51%
16:00 +18°C° 0 mm 3 m/s 720 mmHg 56%
17:00 +17°C° 0 mm 3 m/s 720 mmHg 60%
18:00 +16°C° 0 mm 3 m/s 720 mmHg 65%
19:00 +14°C° 0 mm 3 m/s 720 mmHg 70%
20:00 +13°C° 0 mm 2 m/s 721 mmHg 76%
21:00 +12°C° 0 mm 2 m/s 721 mmHg 82%
22:00 +10°C° 0 mm 2 m/s 721 mmHg 84%
23:00 +10°C° 0 mm 2 m/s 721 mmHg 86%
Voir plus

Nous avons besoin de votre consentement

Meteoprog et ses fournisseurs de services peuvent stocker et accéder à des données personnelles telles que des cookies, des identifiants d'appareils ou d'autres technologies similaires sur votre appareil et traiter ces données pour personnaliser le contenu et les publicités, ainsi que pour fournir des fonctionnalités de médias sociaux et analyser le trafic.

  • Stocker et/ou accéder à des informations sur votre appareil

    Des cookies, des identifiants d'appareils ou d'autres informations peuvent être stockés ou accessibles sur votre appareil aux fins indiquées ci-dessus.

  • Annonces et contenus personnalisés, mesure des annonces et des contenus, connaissance de l'audience et développement de produits

    Les annonces et le contenu peuvent être personnalisés en fonction d'un profil. D'autres données peuvent être ajoutées pour mieux personnaliser les annonces et le contenu. Les performances des publicités et du contenu peuvent être mesurées. Il est possible d'obtenir des informations sur le public qui a vu les publicités et le contenu. Ces données peuvent être utilisées pour développer ou améliorer l'expérience de l'utilisateur, les systèmes et les logiciels.

En cliquant sur "J'accepte", vous autorisez l'utilisation de cookies, des identifiants d'appareils, des balises web ou d'autres technologies similaires. Vos paramètres peuvent être modifiés dans le navigateur de votre appareil.

Dans certains cas, des intérêts légitimes peuvent être invoqués plutôt qu'un consentement. Vous pouvez en savoir plus à ce sujet dans notre Politique de confidentialité et de cookies.